sat.trackr.live / text

‹ back to catalog

STARLINK-5191

NORAD 54763 · 2022-175F

PAYLOAD ACTIVE UNKNOWN

§ Identity

Operator
Country
US
Launch date
2022-12-17
Launch site
AFETR
Launch vehicle
Mass (kg)
RCS (m²)

Purposes: comms

External: N2YO · Heavens-Above · Gunter

§ Orbital elements

Epoch: 2026-05-25T01:01:58.764864Z

Period
95.44 min
Inclination
53.2151°
Eccentricity
0.0001690
Mean motion
15.08846045 rev/d
Perigee alt
538.6 km
Apogee alt
540.9 km
Semi-major
6,917.9 km
B*
-1.6212e-5
RAAN
61.5047°
Arg perigee
84.9787°
Mean anomaly
275.1398°
Rev number
19,144

§ Raw data

STARLINK-51911 54763U 22175F   26145.04304126 -.00000546  00000+0 -16212-4 0  99922 54763  53.2151  61.5047 0001690  84.9787 275.1398 15.08846045191441

JSON: /api/v1/satellites/54763 · /tle

For live sub-satellite position, see the globe view (requires WebGL).

§ Visibility from observer

Set your observer location to see the next 7 days of passes ≥ 10°. The values pass through the URL so the page stays shareable.

No JS? Fill the form by hand. The geolocation button needs JavaScript.